Probability
0 0 0 0 0 0 0 0 0 0 0 0 0 0 0 0 0 0 0 0 0 0 0 0 0 0 0 0 0 0 0 0 0 0 0 0 0 0 0 0 0 0 0
0 0 0 0 0 0 0 0 0 0 0 0 0 0 0 0 0 0 0 0 0 0 0 0 0 0 0 0 0 0 0 0 0 0 0 0 0 0 0 0 0 0 0
0 0 0 0 0 0 0 0 0 0 0 0 0 0 0 0 0 0 0 0 0 0 0 0 0 0 0 0 0 0 0 0 0 0 0 0 0 0 0 0 0 0 0
0 0 0 0 0 0 0 0 0 0 0 0 0 0 0 0 0 0 0 0 0 0 0 0 0 0 0 0 0 0 0 0 0 0 0 0 0 0 0 0 0 0 0
0 0 0 0 0 0 0 0 0 0 0 0 0 0 0 0 0 0 0 0 0 0 0 0 0 0 0 0 0 0 0 0 0 0 0 0 0 0 0 0 0 0 0
0 0 0 0 0 0 0 0 0 0 0 0 0 0 0 0 0 0 0 0 0 0 0 0 0 0 0 0 0 0 0 0 0 0 0 0 0 0 0 0 0 0 0
0 0 0 0 0 0 0 0 0 0 0 0 0 0 0 0 0 0 0 0 0 0 0 0 0 0 0 0 0 0 0 0 0 0 0 0 0 0 0 0 0 0 0
0 0 0 0 0 0 0 0 0 0 0 0 0 0 0 0 0 0 0 0 0 0 0 0 0 0 0 0 0 0 0 0 0 0 0 0 0 0 0 0 0 0 0
0 0 0 0 0 0 0 0 0 0 0 0 0 0 0 0 0 0 0 0 0 0 0 0 0 0 0 0 0 0 0 0 0 0 0 0 0 0 0 0 0 0 0
0 0 0 0 0 0 0 0 0 0 0 0 0 0 0 0 0 0 0 0 0 0 0 0 0 0 0 0 0 0 0 0 0 0 0 0 0 0 0 0 0 0 0
0 0 0 0 0 0 0 0 0 0 0 0 0 0 0 0 0 0 0 0 0 0 0 0 0 0 0 0 0 0 0 0 0 0 0 0 0 0 0 0 0 0 0
0 0 0 0 0 0 0 0 0 0 0 0 0 0 0 0 0 0 0 0 0 0 0 0 0 0 0 0 0 0 0 0 0 0 0 0 0 0 0 0 0 0 0
0 0 0 0 0 0 0 0 0 0 0 0 0 0 0 0 0 0 0 0 0 0 0 0 0 0 0 0 0 0 0 0 0 0 0 0 0 0 0 0 0 0 0
0 0 0 0 0 0 0 0 0 0 0 0 0 0 0 0 0 0 0 0 0 0 0 0 0 0 0 0 0 0 0 0 0 0 0 0 0 0 0 0 0 0 0
0 0 0 0 0 0 0 0 0 0 0 0 0 0 0 0 0 0 0 0 0 0 0 0 0 0 0 0 0 0 0 0 0 0 0 0 0 0 0 0 0 0 0
0 0 0 0 0 0 0 0 0 0 0 0 0 0 0 0 0 0 0 0 0 0 0 0 0 0 0 0 0 0 0 0 0 0 0 0 0 0 0 0 0 0 0
0 0 0 0 0 0 0 0 0 0 0 0 0 0 0 0 0 0 0 0 0 0 0 0 0 0 0 0 0 0 0 0 0 0 0 0 0 0 0 0 0 0 0
0 0 0 0 0 0 0 0 0 0 0 0 0 0 0 0 0 0 0 0 0 0 0 0 0 0 0 0 0 0 0 0 0 0 0 0 0 0 0 0 0 0 0
0 0 0 0 0 0 0 0 0 0 0 0 0 0 0 0 0 0 0 0 0 0 0 0 0 0 0 0 0 0 0 0 0 0 0 0 0 0 0 0 0 0 0
0 0 0 0 0 0 0 0 0 0 0 0 0 0 0 0 0 0 0 0 0 0 0 0 0 0 0 0 0 0 0 0 0 0 0 0 0 0 0 0 0 0 0
0 0 0 0 0 0 0 0 0 0 0 0 0 0 0 0 0 0 0 0 0 0 0 0 0 0 0 0 0 0 0 0 0 0 0 0 0 0 0 0 0 0 0
0 0 0 0 0 0 0 0 0 0 0 0 0 0 0 0 0 0 0 0 0 0 0 0 0 0 0 0 0 0 0 0 0 0 0 0 0 0 0 0 0 0 0
0 0 0 0 0 0 0 0 0 0 0 0 0 0 0 0 0 0 0 0 0 0 0 0 0 0 0 0 0 0 0 0 0 0 0 0 0 0 0 0 0 0 0
0 0 0 0 0 0 0 0 0 0 0 0 0 0 0 0 0 0 0 0 0 0 0 0 0 0 0 0 0 0 0 0 0 0 0 0 0 0 0 0 0 0 0
0 0 0 0 0 0 0 0 0 0 0 0 0 0 0 0 0 0 0 0 0 0 0 0 0 0 0 0 0 0 0 0 0 0 0 0 0 0 0 0 0 0 0
0 0 0 0 0 0 0 0 0 0 0 0 0 0 0 0 0 0 0 0 0 0 0 0 0 0 0 0 0 0 0 0 0 0 0 0 0 0 0 0 0 0 0
Height
5649 5634 5619 5603 5587 5570 5553 5535 5517 5500 5483 5466 5450 5435 5419 5404 5389 5374 5359 5345 5331 5319 5308 5299 5292 5286 5282 5279 5277 5276 5276 5278 5282 5288 5295 5303 5313 5323 5333 5344 5355 5370 5387
5642 5627 5612 5597 5581 5564 5547 5529 5512 5494 5478 5462 5446 5431 5416 5401 5386 5371 5357 5343 5329 5317 5306 5297 5290 5284 5280 5277 5275 5274 5274 5276 5280 5285 5291 5299 5307 5316 5326 5335 5346 5358 5374
5637 5622 5606 5591 5575 5558 5542 5524 5507 5490 5474 5458 5443 5428 5413 5398 5384 5369 5356 5342 5329 5316 5305 5296 5289 5283 5279 5276 5274 5273 5273 5274 5277 5282 5287 5294 5302 5310 5319 5328 5337 5349 5363
5631 5616 5601 5585 5570 5553 5537 5520 5503 5486 5471 5455 5440 5425 5411 5396 5382 5368 5355 5342 5329 5316 5305 5296 5289 5283 5279 5275 5273 5272 5272 5273 5275 5278 5283 5289 5297 5304 5312 5321 5330 5340 5354
5626 5611 5596 5580 5565 5549 5532 5516 5499 5483 5467 5452 5438 5423 5409 5395 5381 5368 5355 5341 5329 5317 5306 5297 5289 5283 5278 5275 5272 5271 5271 5271 5273 5276 5280 5285 5291 5298 5306 5314 5323 5332 5344
5621 5606 5591 5576 5560 5545 5529 5513 5496 5481 5465 5450 5436 5422 5407 5394 5380 5367 5353 5341 5329 5318 5308 5299 5291 5284 5279 5275 5272 5270 5269 5269 5271 5273 5276 5281 5286 5293 5300 5308 5315 5325 5337
5616 5602 5587 5572 5557 5541 5525 5510 5494 5479 5464 5449 5435 5421 5407 5394 5381 5368 5354 5342 5331 5320 5310 5301 5293 5286 5280 5275 5272 5270 5269 5268 5269 5270 5273 5277 5282 5288 5294 5302 5309 5318 5330
5612 5597 5583 5568 5553 5538 5522 5507 5492 5477 5463 5449 5434 5421 5407 5394 5381 5369 5356 5345 5333 5323 5313 5303 5295 5288 5282 5277 5273 5270 5269 5268 5268 5269 5271 5274 5278 5283 5289 5297 5304 5314 5324
5607 5593 5579 5564 5550 5535 5520 5504 5490 5475 5461 5447 5434 5421 5407 5394 5382 5370 5358 5347 5335 5325 5315 5306 5298 5291 5284 5279 5275 5272 5270 5268 5268 5268 5270 5272 5276 5280 5286 5293 5300 5309 5320
5603 5589 5575 5561 5546 5532 5517 5502 5488 5473 5459 5445 5432 5420 5407 5394 5382 5371 5359 5349 5338 5327 5318 5309 5301 5293 5287 5282 5277 5274 5271 5269 5268 5268 5269 5271 5275 5279 5284 5291 5298 5307 5317
5598 5585 5572 5558 5544 5529 5515 5501 5486 5472 5458 5445 5432 5419 5407 5395 5383 5372 5361 5350 5340 5330 5320 5312 5304 5297 5290 5285 5280 5276 5273 5271 5270 5270 5270 5272 5275 5279 5284 5290 5297 5306 5316
5594 5581 5568 5555 5541 5527 5513 5499 5485 5471 5457 5444 5431 5419 5407 5396 5385 5374 5363 5352 5342 5333 5323 5315 5307 5300 5294 5288 5284 5279 5276 5274 5272 5272 5272 5273 5276 5280 5284 5291 5298 5307 5317
5589 5577 5564 5552 5539 5525 5511 5497 5484 5470 5457 5444 5432 5420 5409 5398 5387 5376 5366 5356 5345 5336 5326 5317 5310 5303 5297 5292 5288 5284 5280 5278 5276 5275 5275 5276 5278 5282 5287 5293 5300 5309 5318
5584 5573 5561 5548 5536 5523 5510 5496 5483 5470 5456 5444 5432 5421 5410 5400 5389 5379 5369 5359 5349 5339 5330 5321 5313 5306 5301 5296 5292 5288 5285 5282 5280 5279 5279 5279 5282 5285 5290 5296 5303 5311 5320
5578 5568 5556 5545 5533 5521 5508 5495 5482 5469 5456 5444 5433 5422 5412 5401 5391 5381 5371 5362 5352 5343 5333 5325 5317 5311 5305 5300 5296 5292 5289 5287 5285 5283 5283 5284 5286 5289 5294 5300 5307 5314 5323
5573 5563 5552 5541 5529 5518 5505 5493 5480 5468 5455 5443 5431 5421 5411 5401 5391 5382 5372 5363 5354 5345 5337 5329 5322 5315 5308 5304 5300 5296 5294 5291 5290 5288 5288 5289 5291 5294 5299 5304 5311 5318 5326
5566 5557 5547 5536 5526 5514 5503 5490 5478 5466 5454 5442 5431 5420 5411 5401 5392 5383 5374 5365 5356 5348 5340 5332 5325 5318 5312 5307 5303 5299 5297 5295 5294 5293 5293 5294 5296 5300 5304 5309 5315 5321 5329
5559 5550 5541 5531 5521 5511 5500 5488 5476 5464 5453 5441 5430 5420 5411 5402 5393 5384 5375 5367 5359 5351 5343 5336 5329 5322 5315 5310 5305 5302 5300 5299 5298 5297 5297 5299 5301 5304 5308 5313 5319 5325 5332
5551 5543 5535 5526 5517 5507 5496 5485 5474 5463 5452 5441 5430 5420 5411 5402 5394 5385 5377 5369 5361 5353 5346 5339 5332 5325 5318 5312 5307 5304 5302 5301 5300 5300 5301 5303 5305 5308 5312 5317 5322 5329 5335
5542 5536 5528 5520 5511 5502 5492 5482 5472 5461 5451 5440 5429 5419 5410 5402 5394 5386 5378 5370 5363 5355 5348 5341 5334 5327 5321 5315 5309 5306 5303 5302 5302 5302 5304 5305 5308 5312 5316 5320 5325 5331 5338
5533 5527 5521 5514 5506 5497 5488 5479 5469 5459 5449 5439 5429 5419 5410 5402 5394 5386 5379 5372 5364 5357 5350 5343 5336 5330 5323 5317 5311 5307 5304 5302 5302 5303 5305 5307 5310 5314 5318 5322 5327 5333 5340
5524 5519 5513 5507 5500 5492 5483 5475 5465 5456 5447 5437 5427 5418 5409 5401 5394 5387 5379 5372 5365 5358 5351 5344 5338 5331 5325 5319 5313 5308 5304 5302 5302 5303 5305 5307 5311 5314 5319 5323 5329 5335 5341
5514 5510 5505 5499 5493 5486 5478 5470 5462 5453 5444 5435 5426 5417 5408 5400 5393 5386 5379 5372 5365 5359 5352 5345 5338 5332 5326 5320 5314 5308 5304 5301 5300 5301 5303 5306 5310 5314 5319 5324 5329 5335 5341
5504 5501 5497 5492 5486 5480 5473 5466 5458 5450 5442 5433 5424 5415 5407 5399 5392 5385 5379 5372 5365 5359 5352 5345 5339 5332 5326 5320 5314 5308 5303 5300 5298 5298 5300 5304 5308 5312 5317 5323 5329 5335 5341
5494 5491 5488 5484 5479 5474 5467 5461 5453 5446 5438 5430 5422 5413 5405 5398 5391 5384 5378 5371 5365 5358 5352 5345 5338 5332 5326 5319 5313 5308 5302 5298 5296 5295 5297 5300 5304 5309 5315 5321 5327 5333 5340
5484 5482 5479 5476 5472 5467 5461 5455 5449 5442 5435 5427 5419 5411 5404 5396 5389 5383 5376 5370 5364 5357 5351 5344 5338 5331 5325 5318 5312 5306 5301 5296 5293 5292 5293 5296 5300 5305 5311 5317 5324 5331 5338
Wind_Speed
73 73 73 73 74 75 76 76 74 72 69 67 65 65 64 62 60 59 58 56 52 46 40 33 28 23 19 16 14 12 15 20 26 34 41 46 48 51 55 60 69 82 96
73 74 74 74 74 74 75 75 73 71 68 66 65 64 63 62 60 58 57 55 51 46 40 33 27 23 18 16 13 12 14 17 23 30 36 41 45 47 50 54 61 72 87
74 75 75 74 74 74 75 74 72 70 67 65 64 63 62 61 59 58 56 54 51 46 40 33 27 22 18 15 12 11 12 15 20 26 32 37 40 43 45 49 55 64 77
74 75 75 74 74 74 74 74 71 69 66 64 63 62 61 60 59 57 55 53 50 46 41 34 28 23 19 15 12 10 11 14 17 22 28 33 36 39 42 45 50 58 69
74 75 76 75 74 74 74 73 71 68 66 63 62 61 60 59 58 56 54 53 50 46 41 35 29 24 19 16 13 11 10 12 15 19 24 29 32 35 39 41 45 52 62
74 75 76 75 74 73 73 73 70 67 65 62 61 60 59 58 57 56 54 52 49 46 41 35 30 26 21 17 13 11 9 10 13 17 21 25 29 33 36 38 42 48 56
73 74 75 75 74 73 73 72 70 67 64 61 59 59 58 57 56 55 53 51 48 45 40 36 32 27 23 18 14 11 9 9 10 14 18 22 26 30 33 36 39 45 52
72 73 75 75 73 72 72 71 70 67 64 61 58 58 57 56 55 54 52 50 47 44 40 36 32 28 24 19 15 11 9 7 8 10 14 18 22 26 30 34 37 42 49
71 72 74 74 73 72 71 71 69 67 64 61 58 57 56 55 54 52 51 49 46 43 40 36 31 27 23 20 16 12 9 7 6 7 11 15 19 23 27 31 36 42 48
70 71 72 73 73 71 70 70 69 67 64 61 58 56 55 54 53 52 50 49 46 43 40 36 31 27 24 21 17 14 10 7 4 4 8 12 16 20 24 29 35 41 46
69 70 71 72 72 70 69 69 68 66 63 60 57 56 54 53 52 50 49 48 47 43 39 35 31 27 24 21 18 15 12 7 4 2 4 9 14 18 23 28 34 39 44
67 68 69 70 71 69 68 67 67 65 62 59 56 54 53 52 51 49 48 47 46 43 40 35 31 27 24 21 19 16 13 9 6 3 2 7 13 18 23 28 33 37 42
66 67 68 69 69 68 66 66 65 64 62 59 55 53 51 50 49 48 46 45 44 43 41 37 32 27 24 20 18 17 14 11 8 6 4 6 12 18 24 29 32 36 40
65 65 66 67 67 67 65 64 64 63 61 58 55 52 50 49 47 46 44 43 43 42 40 38 34 28 24 21 17 16 14 12 10 7 6 7 12 19 24 29 31 35 39
63 64 64 65 66 65 64 63 63 63 62 59 55 51 48 47 46 46 44 43 42 41 40 38 36 30 24 20 17 14 13 12 10 8 7 8 13 19 25 28 31 35 39
62 62 62 63 63 63 62 61 61 62 61 58 55 50 47 46 45 45 44 42 41 40 40 38 36 32 26 20 16 13 11 10 9 8 8 9 14 20 24 28 31 34 39
61 60 60 60 61 61 60 59 59 60 60 58 54 50 46 45 44 44 43 41 39 39 39 37 35 33 28 21 16 12 10 9 7 6 7 10 14 19 23 27 31 34 39
59 58 58 58 58 58 58 57 56 57 57 56 53 49 45 43 43 42 42 41 39 38 37 36 35 33 29 24 17 12 8 6 5 5 7 10 14 18 22 26 30 34 38
56 56 56 55 56 56 55 54 54 55 55 55 52 49 45 42 41 41 40 39 38 36 35 35 35 34 31 26 20 13 8 4 2 3 7 11 15 18 22 25 29 33 37
54 53 53 53 53 53 53 52 52 52 53 53 51 48 44 41 40 40 39 38 37 36 35 34 34 34 32 29 23 16 9 3 1 4 7 11 15 18 21 24 27 31 36
51 50 50 50 50 50 50 49 49 50 51 51 50 47 43 40 39 38 38 37 37 36 34 34 33 33 32 31 26 19 11 4 3 7 9 13 16 19 21 24 27 31 34
49 48 48 47 47 47 47 46 46 47 49 50 49 46 43 39 37 37 36 36 36 35 34 33 33 32 32 31 28 22 14 6 4 9 12 15 18 21 22 24 27 30 33
47 46 45 44 44 44 44 44 44 45 46 48 47 45 42 39 37 36 35 35 35 34 34 34 33 32 32 31 30 25 18 9 4 9 14 17 20 22 24 25 27 30 33
45 43 42 41 41 41 41 41 41 42 44 45 46 44 41 38 36 35 34 34 33 34 34 34 33 33 32 31 30 28 22 13 5 8 15 19 22 24 26 28 29 31 33
42 41 39 38 38 38 38 38 39 40 41 43 44 43 41 38 35 34 33 33 33 33 34 34 33 33 33 32 30 29 25 18 8 6 13 19 23 26 28 30 31 32 34
39 37 36 36 35 35 35 36 36 37 39 41 42 42 40 37 35 33 33 32 32 32 33 34 33 33 33 32 31 29 26 20 12 4 10 18 24 27 30 32 33 34 35
Wind_Direction
348 347 346 345 345 345 346 347 347 348 348 348 348 348 349 349 350 350 350 349 348 346 343 339 334 328 319 308 293 271 245 229 220 218 217 217 217 218 219 219 218 216 213
348 348 347 346 346 347 347 349 349 349 349 349 350 350 350 351 352 352 352 352 351 350 347 343 338 333 324 312 296 273 249 233 223 218 218 218 218 218 219 219 218 216 214
348 348 348 347 347 347 349 350 350 351 351 351 351 351 352 352 353 353 354 354 354 353 351 347 343 337 329 319 304 279 253 237 227 220 219 219 219 219 219 219 219 217 214
348 348 348 348 347 348 350 351 352 352 352 352 352 352 353 354 354 355 355 356 356 356 354 352 348 342 335 325 311 290 261 241 230 222 219 220 220 219 219 219 218 216 214
348 348 348 348 348 349 350 352 353 353 353 353 353 354 354 355 355 356 357 358 358 358 357 356 353 349 343 333 319 299 273 249 234 224 220 220 220 219 218 218 217 215 213
347 348 348 348 348 349 351 352 353 354 354 354 354 355 355 356 357 357 358 360 360 360 360 359 356 353 348 340 328 312 288 259 240 229 222 220 219 218 217 217 215 213 211
346 347 348 348 348 349 351 353 354 355 355 355 355 356 356 357 358 359 359 360 1 1 2 2 0 358 356 349 338 324 302 271 248 233 223 218 216 215 215 214 212 209 208
345 346 347 348 348 349 350 353 354 355 356 356 356 356 357 358 359 360 1 0 1 2 3 3 2 1 0 359 352 340 326 294 260 235 222 216 214 213 212 210 207 204 203
344 345 347 348 348 349 350 352 355 356 356 357 357 357 358 359 360 0 1 2 2 3 3 4 4 3 2 2 360 354 343 323 283 240 220 213 209 207 205 203 201 199 199
343 344 345 347 347 348 350 352 354 356 357 357 358 358 359 360 0 1 2 3 3 3 4 5 5 5 5 5 5 2 355 342 312 252 219 207 202 200 198 197 195 194 194
341 343 344 346 347 348 349 351 354 356 357 357 358 359 359 0 1 1 2 3 5 5 5 5 5 6 7 8 11 10 8 6 354 297 216 201 195 192 191 190 189 189 190
339 341 343 344 346 347 348 351 353 356 357 358 358 359 359 0 1 2 3 4 5 6 6 7 7 7 9 11 14 17 19 24 27 37 159 184 186 184 182 183 183 184 185
337 339 341 343 344 346 347 350 353 355 357 358 358 359 360 0 1 2 3 4 5 7 8 9 9 9 10 12 16 20 24 30 37 51 104 156 171 174 176 177 178 179 181
334 336 339 341 343 344 346 349 352 355 357 358 358 359 360 1 2 2 3 4 7 8 9 10 11 10 11 13 16 22 27 33 42 58 96 137 159 167 169 173 175 176 177
330 333 336 339 341 343 345 347 350 354 356 357 358 359 0 1 1 2 3 5 7 9 10 12 12 10 9 11 15 21 25 32 43 64 97 131 153 162 166 169 171 173 174
327 330 333 336 339 341 343 346 349 352 356 358 358 359 360 1 2 3 4 5 6 8 10 11 11 12 11 10 13 19 25 31 44 69 99 129 151 161 165 169 171 172 172
323 327 330 334 337 340 342 344 348 351 354 357 358 358 359 0 2 3 4 5 6 7 9 10 10 11 11 11 12 16 24 31 45 76 110 136 153 162 166 169 170 171 171
320 323 327 331 334 338 340 343 347 350 353 356 358 358 359 360 1 2 3 4 5 7 8 9 10 10 10 10 9 10 16 29 48 88 122 145 158 165 168 169 171 172 172
316 319 324 328 332 335 338 341 345 349 352 355 357 358 358 359 0 2 3 4 5 5 6 8 9 10 10 10 8 7 6 16 67 121 145 155 164 169 171 172 173 174 174
312 316 320 325 329 333 336 339 343 347 351 354 356 357 358 358 359 0 2 3 4 4 5 6 7 8 9 8 7 4 360 343 202 171 167 169 171 173 175 176 176 176 175
308 312 317 322 326 330 334 337 342 346 349 353 355 357 357 358 358 359 0 1 2 3 4 5 5 6 7 8 6 2 356 335 224 198 186 181 180 180 180 180 179 179 178
304 308 313 319 324 328 331 335 340 344 348 351 354 356 357 357 358 358 359 0 1 2 3 3 4 5 5 6 7 4 356 335 243 207 197 192 188 187 186 184 182 182 181
300 304 310 316 321 325 329 333 338 342 346 350 353 355 357 357 357 357 358 359 360 1 2 2 2 3 3 4 5 5 1 345 270 217 204 199 195 193 191 189 186 185 184
296 301 306 312 318 323 327 331 336 341 345 349 352 355 356 356 356 356 357 358 358 359 0 1 1 1 1 2 3 4 3 353 304 228 210 203 199 197 195 193 190 187 186
292 297 303 309 315 320 324 329 334 339 343 347 351 353 355 356 356 355 356 356 357 358 359 359 360 0 360 360 0 1 1 358 338 247 215 206 202 200 198 196 193 191 189
289 294 299 306 312 318 322 327 332 337 342 346 350 353 354 355 355 355 355 355 355 356 357 358 359 359 359 359 359 359 360 359 352 300 222 208 203 200 200 198 196 194 192